Showing default

PRSC-S1, 65055

Orbit data source: Space-Track

PRSC-S1, 65055 is a payload satellite owned by SUPARCO (CN) in LEO that was launched on Thu, 31 Jul 2025 UTC via a KUAIZHOU-1A launch vehicle from the Xichang Space Center, China (XSC). Payload-class satellites include a variety of spacecraft equipped with specific instruments for various scientific and technological missions. These include communications satellites like Starlink; space stations such as the ISS; scientific satellites like the Hubble; Earth observation satellites from companies like Planet Labs, Umbra, and HawkEye 360; GPS; miniature CubeSats for education and research; and military/defense satellites.

Loading next visibility...
Identifier
65055, 2025-164A
Orbit
LEO
Country
Flag of CNCN / PRC
Related business
Manufacturer
SUPA?
Mission
Operational Civil Radar Imaging
Bus & Motor
PRSS, Unknown motor
Mass
~400 kg wet, ~400 kg dry
Launch date (UTC)
2025-07-31 (4 months ago)
Launch vehicle
KUAIZHOU-1A
Launch site
Xichang Space Center, China (XSC)
Object type
Payload
Rocket body
Debris
Shape & HBR
Box + 2 Pan, 14.5 m
Radar Cross Section
2.315 m², Large (>1 m²)

Expand to show TLE details & history
Last TLE update: 10 hours ago

TLE from 10 hours ago
0 PRSC-S1
1 65055U 25164A   25342.55347922  .00011229  00000-0  73809-3 0  9997
2 65055  41.1308 283.5583 0002195  73.5572 286.5483 15.07455963 19652
Epoch: 2025-12-08T13:17Z
TLE epoch observation values (Epoch: 2025-12-08T13:17:00.604Z)
Latitude
-0.00004°
Longitude
6.75488°
Altitude
543.116 km
Speed
7.593 km/s
True Right ascension
18h 54m 13s
True Declination
0° 00' 00"
Sunlit
Object was in daylight at epoch
Visualization orbit readout
Latitude
Unknown
Longitude
Unknown
Altitude
Unknown
Speed
Unknown
Apparent Right ascension
Unknown
Apparent Declination
Unknown
Sunlit
N/A
Visualization observer readout
Local Sidereal Time
21:57:36
Azimuth
Unknown
Elevation
Unknown
Doppler factor
Unknown
Orbital elements
Apogee altitude
547.735 km
Perigee altitude
544.695 km
Semi-major axis
6,924.352 km
Eccentricity
0.00022
Inclination
41.1308°
RAAN
283.5583°
Arg. of periapsis
73.5572°
True anomaly
286.52419°
Mean anomaly
286.5483°
Eccentric anomaly
286.53624°
Mean motion
3.76682 °/min
Orbital period
95.57 mins
BSTAR
0.00073809
Loading maneuver chart data...
Computing Atmospheric mass density...
Loading historical data...
Loading historical data...
Loading historical data...
Loading historical data...
Loading historical data...
Loading historical data...
Loading historical data...
Other satellites on launch #164 in the year 2025 (2025-07-31 UTC)

Documentation

Showing up to 5 results
|